[[[{"header":{"parameterUnit":"kt","parameterCategory":2,"dx":1,"dy":1,"la1":30.253999710083008,"la2":30.299108505249023,"lo1":-89.0895004272461,"lo2":-89.04439544677734,"nx":28,"ny":28,"refTime":"2022-09-26T21:00:00:Z","depth":0,"parameterNumber":1,"parameterNumberName":"U-component_of_WINDS"},"data":[-8.3265,-8.3519,-8.3492,-8.3768,-8.3789,-8.3973,-8.403,-8.41,-8.4148,-8.4363,-8.4481,-8.4477,-8.4513,-8.4647,-8.4773,-8.4768,-8.4826,-8.4935,-8.4912,-8.4446,-8.4379,-8.4316,-8.4256,-8.4946,-8.4947,-8.5401,-8.5405,-8.5409,-8.2924,-8.2948,-8.3086,-8.3201,-8.3319,-8.3195,-8.3276,-8.3383,-8.355,-8.3611,-8.3726,-8.3912,-8.4055,-8.4054,-8.4186,-8.4303,-8.4255,-8.4342,-8.4336,-8.4345,-8.3843,-8.378,-8.4379,-8.4379,-8.4379,-8.4379,-8.4379,-8.4379,-8.2295,-8.2449,-8.2502,-8.2651,-8.2701,-8.2777,-8.2918,-8.2911,-8.3045,-8.3181,-8.3119,-8.3308,-8.3363,-8.3509,-8.355,-8.3696,-8.3594,-8.3682,-8.3705,-8.373,-8.3762,-8.3118,-8.3716,-8.3714,-8.3712,-8.3711,-8.3709,0,-8.1828,-8.1795,-8.1925,-8.2048,-8.2154,-8.2246,-8.2326,-8.2411,-8.2329,-8.2443,-8.2606,-8.2695,-8.2869,-8.3019,-8.3136,-8.3161,-8.3049,-8.3032,-8.3093,-8.313,-8.3147,-8.3146,-8.2335,-8.3017,-8.301,-8.3006,-8.3003,-8.3,-8.1197,-8.1378,-8.1419,-8.1515,-8.1551,-8.1706,-8.1792,-8.1706,-8.1802,-8.1885,-8.2025,-8.2172,-8.2287,-8.2551,-8.2541,-8.2672,-8.262,-8.2883,-8.2639,-8.2664,-8.263,-8.2623,-8.2642,-8.2936,-8.2944,-8.2951,-8.2956,0,-8.0845,-8.0798,-8.1069,-8.1092,-8.1103,-8.1297,-8.1316,-8.1465,-8.144,-8.1642,-8.1683,-8.1648,-8.1809,-8.1755,-8.1927,-8.1895,-8.2215,-8.2156,-8.2195,-8.2183,-8.2418,-8.2399,-8.3179,-8.3278,-8.2556,-8.2562,-8.2568,0,-8.0291,-8.0532,-8.0448,-8.0608,-8.0871,-8.0778,-8.1042,-8.1048,-8.1094,-8.1251,-8.1112,-8.1263,-8.1169,-8.1313,-8.1265,-8.1515,-8.1546,-8.1538,-8.1524,-8.1555,-8.1558,-8.161,-8.158,-8.1478,-8.1474,-8.147,-8.1467,0,-7.9751,-7.9986,-8.0244,-8.029,-8.034,-8.0463,-8.0489,-8.054,-8.0626,-8.0727,-8.0782,-8.0907,-8.0977,-8.1076,-8.1015,-8.0851,-8.1318,-8.108,-8.131,-8.1313,-8.1423,-8.1418,-8.2116,-8.1462,-8.1461,-8.146,-8.1459,0,-7.9299,-7.9404,-7.9784,-7.9822,-7.9887,-8.0057,-8.0175,-8.0307,-8.037,-8.0351,-8.043,-8.0333,-8.0545,-8.0314,-8.0605,-8.041,-8.0487,-8.0497,-8.0512,-8.0534,-8.0279,-8.0688,-8.1352,-8.1423,-8.0545,-8.0538,-8.0531,0,-7.8695,-7.9066,-7.8989,-7.9353,-7.9517,-7.9351,-7.9536,-7.9597,-7.9587,-7.9724,-7.9711,-7.9869,-7.9685,-7.9728,-7.9877,-7.9873,-8.0126,-7.9836,-8.004,-8.0049,-8.0035,-8.0644,-8.076,-8.1211,-8.0432,-8.0443,-8.045,0,-7.8223,-7.828,-7.8351,-7.8401,-7.8466,-7.8602,-7.8815,-7.8951,-7.9048,-7.9129,-7.9308,-7.9525,-7.9397,-7.9469,-7.9403,-7.9563,-7.9952,-7.9404,-7.9404,-7.9509,-8.0377,-8.0486,-8.0562,-7.9872,-7.9884,-7.9893,-8.0372,0,-7.7559,-7.7737,-7.7923,-7.8038,-7.8134,-7.8357,-7.8301,-7.8409,-7.8336,-7.8321,-7.858,-7.8616,-7.8757,-7.8826,-7.8757,-7.9138,-7.9068,-7.8929,-7.8707,-7.9104,-7.9261,-7.9325,-7.8477,-7.847,-7.8464,-7.8459,0,0,-7.6997,-7.7252,-7.7162,-7.7366,-7.7443,-7.7268,-7.7512,-7.7566,-7.768,-7.7737,-7.761,-7.7926,-7.7963,-7.8285,-7.8404,-7.8459,-7.8523,-7.8387,-7.8914,-7.8965,-7.9012,-7.9181,-7.9248,-7.8449,-7.8446,-7.8444,-7.8443,0,-7.6745,-7.6783,-7.7024,-7.7075,-7.7148,-7.712,-7.7178,-7.722,-7.7222,-7.7474,-7.733,-7.7478,-7.7734,-7.7792,-7.7856,-7.8344,-7.823,-7.839,-7.8674,-7.8857,-7.8916,-7.8967,-7.9145,-7.921,-7.8428,-7.8429,-7.843,0,-7.6273,-7.6303,-7.6414,-7.6577,-7.6624,-7.6797,-7.6547,-7.674,-7.6867,-7.6669,-7.6924,-7.6938,-7.7011,-7.7321,-7.7458,-7.7347,-7.7966,-7.776,-7.7795,-7.7811,-7.7986,-7.8056,-7.8119,-7.7292,-7.7289,-7.7285,0,0,-7.6064,-7.6228,-7.6235,-7.6519,-7.6558,-7.652,-7.6606,-7.6543,-7.6612,-7.664,-7.6656,-7.6729,-7.6875,-7.6975,-7.711,-7.7457,-7.7467,-7.7622,-7.7676,-7.772,-7.776,-7.7946,-7.8016,-7.7271,-7.7271,-7.727,0,0,-7.5964,-7.5983,-7.5897,-7.6219,-7.6289,-7.6316,-7.6492,-7.6388,-7.6504,-7.6473,-7.6377,-7.6392,-7.668,-7.67,-7.6518,-7.7031,-7.681,-7.6852,-7.7008,-7.7075,-7.7128,-7.712,-7.6271,0,0,0,0,0,-7.5679,-7.5979,-7.5901,-7.5947,-7.6154,-7.6359,-7.6385,-7.6312,-7.6156,-7.6298,-7.6294,-7.6164,-7.6582,-7.6418,-7.6465,-7.6672,-7.709,-7.7122,-7.7152,-7.7435,-7.7505,-7.7565,0,0,0,0,0,0,-7.5696,-7.5752,-7.5893,-7.5934,-7.5979,-7.6347,-7.6069,-7.6057,-7.614,-7.6111,-7.6169,-7.6166,-7.6108,-7.6389,-7.6433,-7.663,-7.6256,-7.7102,-7.713,-7.7154,-7.7459,-7.7517,-7.7566,0,0,0,0,0,-7.5709,-7.5754,-7.6106,-7.5929,-7.5969,-7.5943,-7.6057,-7.6045,-7.6108,-7.6104,-7.6097,-7.6045,-7.6116,-7.6148,-7.6414,-7.6612,-7.6225,-7.6241,-7.712,-7.7142,-7.7161,-7.7487,0,0,0,0,0,0,-7.5719,-7.5745,-7.6112,-7.6122,-7.581,-7.5921,-7.5936,-7.6035,-7.6093,-7.609,-7.5974,-7.5951,-7.6125,-7.6148,-7.6173,-7.661,-7.62,-7.6217,-7.6227,-7.7136,-7.7153,-7.7168,0,0,0,0,0,0,-7.572,-7.5755,-7.6117,-7.5971,-7.5963,-7.5901,-7.5915,-7.613,-7.6096,-7.596,-7.5942,-7.5963,-7.6087,-7.615,-7.6169,-7.6508,-7.618,-7.6197,-7.6208,-7.6215,-7.715,-7.7163,0,0,0,0,0,0,-7.5733,-7.5763,-7.5968,-7.5962,-7.5954,-7.6054,-7.609,-7.6307,-7.5971,-7.596,-7.5938,-7.5924,-7.6093,-7.611,-7.6167,-7.6499,-7.6506,-7.6181,-7.6192,-7.62,-7.6205,0,0,0,0,0,0,0,-7.5744,-7.5565,-7.6057,-7.5955,-7.5947,-7.6209,-7.6211,-7.6214,-7.5967,-7.5955,-7.5942,-7.593,-7.6088,-7.6106,-7.6124,-7.6492,0,0,-7.6179,-7.6187,0,0,0,0,0,0,0,0,-7.5551,-7.5561,-7.6057,-7.6059,-7.6061,-7.6209,-7.6211,-7.6213,-7.5965,-7.5955,-7.5944,-7.5935,-7.6093,-7.6107,-7.6122,0,0,0,0,0,0,0,0,0,0,0,0,0,0,0,-7.6057,-7.6059,0,-7.6209,-7.6211,-7.6213,-7.5964,-7.5955,-7.5947,-7.5939,-7.6097,-7.6108,-7.612,0,0,0,0,0,0,0,0,0,0,0,0,0,0,0,0,0,0,0,0,0,0,0,0,0,0,0,0,0,0,0,0,0,0,0,0,0,0,0,0,0,0,0,0,0,0,0,0,0,0,0,0,0,0,0,0,0,0,0,0,0,0,0,0,0,0,0,0,0]}],[{"header":{"parameterUnit":"kt","parameterCategory":2,"dx":1,"dy":1,"la1":30.253999710083008,"la2":30.299108505249023,"lo1":-89.0895004272461,"lo2":-89.04439544677734,"nx":28,"ny":28,"refTime":"2022-09-26T21:00:00:Z","depth":0,"parameterNumber":2,"parameterNumberName":"V-component_of_WINDS"},"data":[-15.7136,-15.741,-15.7392,-15.7694,-15.7727,-15.7929,-15.7994,-15.8075,-15.8133,-15.8367,-15.8496,-15.8501,-15.8547,-15.8692,-15.8828,-15.8825,-15.8885,-15.8996,-15.8974,-15.8499,-15.8431,-15.8367,-15.8302,-15.9009,-15.901,-15.9469,-15.9473,-15.9476,-15.6787,-15.6825,-15.6981,-15.7118,-15.7249,-15.7131,-15.7227,-15.7344,-15.7525,-15.7599,-15.7726,-15.7927,-15.8082,-15.809,-15.8234,-15.8356,-15.8306,-15.8396,-15.8387,-15.8395,-15.7887,-15.7819,-15.8434,-15.8434,-15.8434,-15.8434,-15.8433,-15.8433,-15.6148,-15.6314,-15.6386,-15.6553,-15.6616,-15.6707,-15.6859,-15.6862,-15.701,-15.7163,-15.7107,-15.731,-15.7376,-15.7537,-15.7584,-15.7738,-15.7634,-15.7724,-15.7747,-15.7771,-15.7801,-15.7142,-15.7761,-15.7759,-15.7758,-15.7756,-15.7755,0,-15.5674,-15.5647,-15.5795,-15.5937,-15.6057,-15.6164,-15.6258,-15.6351,-15.6281,-15.6405,-15.6583,-15.668,-15.6871,-15.7032,-15.7161,-15.7191,-15.7076,-15.7062,-15.7124,-15.7155,-15.7167,-15.7164,-15.6336,-15.7044,-15.7038,-15.7033,-15.703,-15.7027,-15.5027,-15.5223,-15.5288,-15.5394,-15.544,-15.5612,-15.5708,-15.5633,-15.5738,-15.5839,-15.5985,-15.6147,-15.6272,-15.6555,-15.6551,-15.6692,-15.6637,-15.691,-15.6657,-15.6679,-15.6641,-15.6631,-15.6649,-15.6961,-15.697,-15.6977,-15.6982,0,-15.4665,-15.4632,-15.4927,-15.4971,-15.4988,-15.5195,-15.5229,-15.5389,-15.5373,-15.5589,-15.5634,-15.5609,-15.5782,-15.5733,-15.592,-15.5888,-15.6221,-15.6164,-15.6198,-15.6184,-15.6423,-15.6402,-15.7209,-15.731,-15.6577,-15.6584,-15.659,0,-15.41,-15.4359,-15.4294,-15.4467,-15.475,-15.4667,-15.4948,-15.4963,-15.502,-15.5189,-15.5053,-15.5214,-15.5126,-15.5279,-15.5233,-15.5496,-15.5531,-15.5522,-15.5507,-15.5536,-15.5537,-15.5589,-15.5555,-15.5465,-15.5461,-15.5457,-15.5454,0,-15.3537,-15.3805,-15.4085,-15.4141,-15.4212,-15.4345,-15.438,-15.4443,-15.4538,-15.4652,-15.4712,-15.485,-15.4926,-15.5033,-15.4974,-15.4804,-15.5294,-15.5048,-15.5285,-15.5287,-15.5396,-15.5391,-15.6117,-15.5449,-15.5448,-15.5446,-15.5445,0,-15.3075,-15.3198,-15.3611,-15.3666,-15.3739,-15.3923,-15.4056,-15.4202,-15.4278,-15.4262,-15.435,-15.4253,-15.4479,-15.4239,-15.4549,-15.4345,-15.4426,-15.4438,-15.4454,-15.4472,-15.4205,-15.4622,-15.5319,-15.539,-15.4487,-15.4479,-15.4472,0,-15.2439,-15.2847,-15.278,-15.3172,-15.3353,-15.3189,-15.339,-15.3463,-15.3458,-15.3607,-15.3599,-15.377,-15.3581,-15.3627,-15.3787,-15.3785,-15.405,-15.3748,-15.396,-15.3968,-15.3946,-15.4587,-15.4703,-15.5171,-15.4369,-15.438,-15.4387,0,-15.1942,-15.203,-15.2106,-15.2164,-15.225,-15.24,-15.2632,-15.2784,-15.2888,-15.2983,-15.3174,-15.3412,-15.3278,-15.3356,-15.3291,-15.346,-15.3868,-15.3294,-15.3294,-15.3399,-15.4313,-15.4422,-15.4502,-15.3786,-15.3798,-15.3808,-15.4306,0,-15.1253,-15.1452,-15.1654,-15.179,-15.1899,-15.2142,-15.2094,-15.2213,-15.214,-15.213,-15.2409,-15.2454,-15.2606,-15.2682,-15.2612,-15.3015,-15.294,-15.2796,-15.2558,-15.2979,-15.3142,-15.3208,-15.232,-15.2313,-15.2307,-15.2302,0,0,-15.0653,-15.0938,-15.0857,-15.1081,-15.1167,-15.0993,-15.1257,-15.132,-15.1452,-15.1515,-15.1382,-15.1725,-15.1768,-15.2111,-15.2238,-15.23,-15.2367,-15.2222,-15.2779,-15.2833,-15.2882,-15.3057,-15.3127,-15.2291,-15.2288,-15.2286,-15.2284,0,-15.0391,-15.0445,-15.0709,-15.0771,-15.0861,-15.0838,-15.0902,-15.0959,-15.0964,-15.1238,-15.1088,-15.1248,-15.1526,-15.159,-15.1659,-15.2179,-15.2056,-15.2229,-15.2527,-15.2719,-15.2781,-15.2835,-15.302,-15.3087,-15.2269,-15.227,-15.2271,0,-14.9893,-14.9938,-15.006,-15.0251,-15.0308,-15.0498,-15.0238,-15.045,-15.0589,-15.0384,-15.0658,-15.0677,-15.0758,-15.109,-15.1237,-15.112,-15.1776,-15.156,-15.1597,-15.1612,-15.1796,-15.187,-15.1936,-15.1066,-15.1061,-15.1058,0,0,-14.9673,-14.9859,-14.9881,-15.0191,-15.0238,-15.0207,-15.0303,-15.0241,-15.0321,-15.0353,-15.0375,-15.0455,-15.0613,-15.0721,-15.0867,-15.1239,-15.1248,-15.1414,-15.1471,-15.1517,-15.1558,-15.1754,-15.1827,-15.1043,-15.1043,-15.1042,0,0,-14.9567,-14.9607,-14.9521,-14.9875,-14.9958,-14.9999,-15.0188,-15.0082,-15.021,-15.0177,-15.0078,-15.0095,-15.0404,-15.0428,-15.0233,-15.0781,-15.0548,-15.0593,-15.0755,-15.0826,-15.0882,-15.087,-14.9971,0,0,0,0,0,-14.9276,-14.9602,-14.9524,-14.9576,-14.9816,-15.0043,-15.0072,-15.0001,-14.9837,-14.9988,-14.9989,-14.985,-15.0302,-15.0128,-15.0179,-15.0397,-15.085,-15.0884,-15.0916,-15.1213,-15.1287,-15.135,0,0,0,0,0,0,-14.9296,-14.9361,-14.9514,-14.9571,-14.9623,-15.003,-14.9737,-14.9726,-14.9819,-14.9789,-14.9855,-14.9853,-14.9793,-15.0096,-15.0144,-15.0352,-14.9955,-15.0863,-15.0892,-15.0918,-15.1238,-15.1299,-15.1352,0,0,0,0,0,-14.9312,-14.9363,-14.9768,-14.9565,-14.9611,-14.9594,-14.9724,-14.9712,-14.9782,-14.9784,-14.9777,-14.972,-14.9801,-14.9836,-15.0124,-15.0333,-14.9921,-14.9939,-15.0882,-15.0905,-15.0925,-15.1268,0,0,0,0,0,0,-14.9323,-14.9353,-14.9775,-14.9786,-14.9437,-14.9569,-14.9588,-14.9702,-14.977,-14.9768,-14.9643,-14.9619,-14.9811,-14.9836,-14.9864,-15.033,-14.9894,-14.9912,-14.9924,-15.0899,-15.0917,-15.0933,0,0,0,0,0,0,-14.9325,-14.9364,-14.9781,-14.9624,-14.9616,-14.9547,-14.9564,-14.9797,-14.9773,-14.9624,-14.9606,-14.9631,-14.9768,-14.9838,-14.9859,-15.0225,-14.9873,-14.9891,-14.9903,-14.9911,-15.0914,-15.0928,0,0,0,0,0,0,-14.934,-14.9374,-14.962,-14.9615,-14.9607,-14.9726,-14.9751,-15.0,-14.9642,-14.9624,-14.9608,-14.9592,-14.9774,-14.9793,-14.9857,-15.0215,-15.0223,-14.9874,-14.9886,-14.9894,-14.99,0,0,0,0,0,0,0,-14.9352,-14.9144,-14.9709,-14.9607,-14.96,-14.989,-14.9893,-14.9895,-14.9639,-14.9625,-14.9612,-14.9599,-14.9773,-14.9792,-14.9812,-15.0207,0,0,-14.9872,-14.988,0,0,0,0,0,0,0,0,-14.9128,-14.9141,-14.971,-14.9712,-14.9714,-14.989,-14.9892,-14.9895,-14.9637,-14.9626,-14.9614,-14.9604,-14.9778,-14.9794,-14.981,0,0,0,0,0,0,0,0,0,0,0,0,0,0,0,-14.971,-14.9712,0,-14.989,-14.9892,-14.9894,-14.9635,-14.9626,-14.9617,-14.9608,-14.9783,-14.9795,-14.9808,0,0,0,0,0,0,0,0,0,0,0,0,0,0,0,0,0,0,0,0,0,0,0,0,0,0,0,0,0,0,0,0,0,0,0,0,0,0,0,0,0,0,0,0,0,0,0,0,0,0,0,0,0,0,0,0,0,0,0,0,0,0,0,0,0,0,0,0,0]}]]]